Temp
78 78 76 72 71 71 71 71 72 72 72 73 73 72 72 73 73 73 73 73 72 73 72 72 72 72 72 72 71 71 84 84
75 77 78 78 77 70 71 71 71 71 72 71 71 72 72 72 72 73 72 72 72 72 72 72 72 72 71 70 69 70 85 84
75 75 77 77 78 76 72 71 71 71 72 71 71 80 79 77 75 71 72 71 71 72 71 71 71 71 71 70 70 85 85 86
75 74 76 77 79 78 78 78 79 79 79 78 80 79 80 80 75 70 71 70 70 71 70 70 71 82 82 73 84 83 84 85
75 74 76 77 79 78 78 79 78 78 78 78 78 78 78 79 79 79 78 73 79 76 77 80 80 81 81 81 82 82 86 86
75 75 76 76 79 78 78 78 78 77 76 76 76 73 73 75 75 77 76 79 78 79 80 79 78 78 78 79 80 82 85 85
74 74 76 77 76 78 78 77 77 78 76 74 78 75 73 73 74 77 76 78 78 78 78 78 78 78 78 77 78 79 80 84
75 76 76 78 76 74 76 77 77 77 77 75 75 77 76 74 72 74 76 74 78 78 78 78 78 78 78 77 78 79 80 81
73 75 76 76 75 73 76 77 77 76 77 75 73 76 75 75 75 75 76 74 76 77 76 77 77 78 77 78 79 79 80 80
74 75 75 75 74 73 74 76 76 77 77 76 73 75 76 75 76 77 78 76 77 77 77 76 76 77 77 79 80 80 80 79
75 74 74 74 73 73 72 72 73 76 76 76 74 75 75 75 77 77 76 77 76 76 76 76 77 76 77 78 79 79 80 82
76 74 74 74 75 73 71 71 72 75 75 76 75 76 74 74 76 75 75 76 76 76 75 76 76 77 78 78 78 79 80 80
76 73 73 74 74 71 69 68 71 73 76 75 75 75 75 74 76 74 74 75 75 74 74 73 74 75 73 76 77 77 77 80
76 75 74 73 75 75 75 75 75 76 76 75 75 75 75 74 75 75 74 75 73 73 73 73 74 75 74 73 72 78 78 78
77 76 76 74 75 76 75 76 76 73 74 75 75 74 75 74 74 75 74 74 75 73 73 72 73 73 73 75 71 71 75 78
68 76 77 75 75 75 73 73 73 75 75 76 76 75 74 75 75 74 74 74 74 74 74 73 73 73 71 74 77 77 73 74
67 68 72 77 75 75 73 73 76 79 77 75 74 75 74 75 74 74 74 74 74 74 73 72 75 75 73 73 72 74 73 71
66 66 69 75 76 73 73 72 74 76 75 74 74 75 74 74 74 74 74 74 74 74 74 73 73 74 76 75 75 73 72 70
64 65 64 67 76 74 73 73 73 73 74 74 75 75 75 73 73 73 74 74 75 75 74 73 73 74 73 75 76 76 78 76
62 62 63 65 67 75 74 75 75 75 76 76 76 76 76 75 74 74 75 75 75 75 74 74 74 73 73 74 76 76 77 77
MSLP
1015.23 1015.55 1015.79 1016.10 1016.43 1016.74 1017.09 1017.59 1018.00 1018.34 1018.65 1018.88 1019.14 1019.54 1019.89 1020.13 1020.34 1020.59 1020.83 1021.07 1021.32 1021.53 1021.68 1021.87 1022.03 1022.20 1022.33 1022.48 1022.61 1022.65 1022.16 1022.16
1015.41 1015.67 1015.95 1016.19 1016.52 1016.86 1017.10 1017.51 1018.05 1018.48 1018.74 1019.02 1019.31 1019.60 1019.92 1020.16 1020.43 1020.67 1020.96 1021.17 1021.40 1021.60 1021.79 1021.99 1022.12 1022.29 1022.42 1022.54 1022.65 1022.61 1022.12 1022.12
1015.41 1015.73 1015.98 1016.29 1016.52 1016.91 1017.29 1017.66 1018.01 1018.52 1018.93 1019.21 1019.52 1019.52 1019.92 1020.26 1020.34 1020.75 1020.99 1021.25 1021.50 1021.74 1021.89 1022.04 1022.18 1022.34 1022.44 1022.51 1022.50 1021.97 1021.94 1021.86
1015.45 1015.74 1015.91 1016.32 1016.53 1016.89 1017.19 1017.55 1017.97 1018.25 1018.63 1019.11 1019.28 1019.58 1019.77 1019.98 1020.43 1020.84 1021.09 1021.34 1021.54 1021.74 1021.95 1022.13 1022.27 1021.91 1022.02 1022.39 1021.94 1021.96 1021.86 1021.74
1015.32 1015.71 1015.87 1016.14 1016.38 1016.75 1017.06 1017.32 1017.69 1018.13 1018.43 1018.76 1019.17 1019.51 1019.85 1020.05 1020.31 1020.69 1020.94 1021.37 1021.36 1021.67 1021.86 1021.78 1021.76 1021.78 1021.79 1021.86 1021.81 1021.81 1021.48 1021.41
1014.89 1015.53 1015.86 1016.01 1016.23 1016.65 1016.86 1017.07 1017.38 1017.72 1018.16 1018.55 1018.87 1019.36 1019.75 1020.01 1020.28 1020.42 1020.77 1020.83 1021.03 1021.23 1021.31 1021.53 1021.75 1021.84 1021.86 1021.82 1021.80 1021.66 1021.38 1021.28
1014.78 1015.17 1015.56 1016.01 1016.32 1016.39 1016.68 1016.97 1017.26 1017.43 1017.91 1018.33 1018.44 1018.92 1019.30 1019.73 1020.08 1020.22 1020.47 1020.66 1020.76 1020.94 1021.05 1021.21 1021.42 1021.58 1021.68 1021.71 1021.62 1021.57 1021.51 1021.28
1014.70 1015.03 1015.19 1015.43 1016.05 1016.54 1016.59 1016.79 1017.08 1017.44 1017.58 1017.93 1018.16 1018.35 1018.72 1019.24 1019.72 1019.89 1020.07 1020.52 1020.46 1020.59 1020.69 1020.84 1020.91 1021.10 1021.21 1021.36 1021.34 1021.27 1021.16 1021.08
1014.19 1014.75 1014.91 1015.26 1015.66 1016.27 1016.53 1016.64 1016.92 1017.01 1017.22 1017.65 1018.04 1017.98 1018.25 1018.60 1018.93 1019.20 1019.46 1020.06 1020.17 1020.41 1020.63 1020.78 1020.79 1020.74 1020.72 1020.73 1020.80 1020.77 1020.61 1020.56
1013.21 1013.83 1014.48 1015.00 1015.35 1015.79 1016.13 1016.27 1016.55 1016.62 1016.79 1017.13 1017.57 1017.68 1017.90 1018.15 1018.24 1018.38 1018.75 1019.29 1019.52 1019.74 1019.92 1020.18 1020.30 1020.32 1020.24 1020.07 1019.97 1020.00 1019.93 1019.90
1012.71 1012.86 1013.09 1013.92 1014.66 1015.20 1015.62 1015.86 1015.96 1015.98 1016.36 1016.52 1016.74 1016.98 1017.37 1017.62 1017.64 1017.89 1018.41 1018.60 1018.82 1019.08 1019.36 1019.62 1019.59 1019.76 1019.75 1019.63 1019.48 1019.31 1019.12 1018.97
1011.60 1012.53 1012.86 1012.99 1013.48 1014.21 1014.91 1015.34 1015.43 1015.47 1015.54 1015.77 1016.10 1016.20 1016.53 1016.97 1017.12 1017.50 1017.97 1018.08 1018.28 1018.52 1018.73 1019.06 1019.24 1019.28 1019.30 1019.02 1018.88 1018.64 1018.46 1018.27
1010.59 1011.18 1011.59 1012.65 1013.01 1013.01 1013.44 1013.81 1014.55 1014.74 1014.78 1015.05 1015.40 1015.75 1016.04 1016.27 1016.39 1016.84 1017.26 1017.31 1017.50 1017.95 1018.28 1018.56 1018.65 1019.09 1019.22 1018.56 1018.24 1017.96 1017.65 1017.32
1009.98 1009.99 1010.48 1010.95 1011.31 1011.76 1012.38 1012.62 1012.92 1013.34 1013.83 1014.22 1014.49 1014.85 1015.15 1015.45 1015.53 1015.81 1016.28 1016.55 1016.90 1017.21 1017.65 1017.80 1018.02 1018.45 1018.18 1018.36 1017.46 1016.65 1016.53 1016.44
1010.17 1009.55 1009.71 1009.96 1010.14 1010.98 1011.59 1011.94 1012.32 1012.55 1012.40 1012.77 1013.20 1013.70 1014.07 1014.50 1014.62 1014.88 1015.31 1015.74 1015.80 1016.27 1016.76 1016.97 1016.94 1017.71 1017.88 1017.44 1016.93 1016.06 1015.99 1015.58
1011.03 1009.58 1009.10 1009.20 1009.76 1009.89 1010.08 1009.91 1009.93 1009.78 1010.73 1011.32 1011.93 1012.65 1013.12 1013.36 1013.86 1014.20 1014.40 1014.76 1014.94 1015.10 1015.66 1015.94 1016.55 1016.36 1017.33 1016.89 1016.33 1016.07 1015.77 1015.11
1011.91 1010.41 1009.10 1008.49 1008.79 1008.96 1009.17 1009.04 1008.79 1008.98 1009.83 1010.37 1010.88 1011.18 1011.72 1012.39 1012.76 1013.02 1013.47 1013.71 1013.87 1014.26 1014.69 1015.08 1015.13 1015.34 1015.48 1015.82 1016.05 1015.93 1015.97 1015.76
1012.49 1010.81 1009.29 1008.35 1007.82 1008.04 1008.04 1008.15 1008.20 1008.59 1008.71 1008.88 1009.31 1009.88 1010.36 1010.85 1011.25 1011.93 1012.27 1012.64 1012.67 1012.92 1013.41 1013.86 1014.11 1014.38 1014.40 1014.65 1014.58 1014.54 1014.46 1014.90
1013.54 1011.77 1010.31 1008.84 1007.04 1007.32 1007.52 1007.61 1008.19 1008.05 1008.20 1008.60 1008.99 1009.25 1009.47 1009.44 1009.88 1010.31 1010.92 1011.37 1011.92 1012.49 1012.68 1012.82 1013.14 1013.39 1013.62 1013.47 1013.69 1013.44 1013.47 1013.63
1014.57 1012.99 1011.50 1010.41 1008.81 1007.51 1007.45 1007.55 1007.71 1007.84 1007.89 1007.87 1008.07 1008.16 1008.46 1009.22 1009.82 1010.27 1010.40 1010.77 1011.35 1011.76 1012.15 1012.54 1012.74 1012.79 1012.77 1013.02 1012.94 1012.97 1013.03 1012.75
Wind_Speed
14 15 15 13 13 15 15 14 13 13 13 14 14 13 12 11 12 11 12 12 11 11 11 10 9 9 7 5 4 3 3 4
13 13 14 14 14 13 15 15 13 12 13 13 13 13 13 12 12 12 11 11 11 11 10 9 8 6 5 4 3 3 2 4
14 13 13 13 13 13 13 14 14 12 11 10 12 10 13 13 9 11 11 10 10 9 9 9 7 6 5 4 4 2 3 3
14 14 14 13 11 13 13 13 11 12 12 13 9 9 9 9 9 10 10 10 9 10 9 6 7 5 5 5 4 3 3 3
15 14 14 14 11 10 7 7 8 9 13 12 9 8 7 7 6 7 7 9 7 8 8 7 8 6 5 4 4 5 3 3
15 15 14 14 10 9 9 9 9 8 10 13 9 7 8 7 6 7 7 7 9 8 6 7 7 6 6 5 5 5 4 3
16 15 15 13 12 10 10 10 9 10 10 11 10 9 9 8 7 7 7 7 8 8 7 7 7 7 6 6 6 7 7 5
15 16 15 15 12 12 10 10 10 10 10 11 14 11 10 9 9 9 8 7 8 8 8 7 7 7 7 8 8 7 8 8
16 16 15 15 13 10 11 10 10 11 10 13 15 14 13 12 10 10 9 8 10 8 8 7 7 7 9 8 8 9 9 9
19 16 17 16 14 11 10 11 11 11 11 11 15 16 14 13 10 10 10 9 8 8 8 8 8 8 8 8 8 8 10 10
19 20 22 20 16 11 11 14 12 12 11 11 16 17 16 12 11 10 10 9 9 9 9 9 9 8 8 8 8 9 10 10
20 17 19 20 15 12 9 11 12 12 13 13 16 14 17 14 11 11 10 10 10 10 11 9 9 8 8 9 9 9 9 10
21 20 21 16 14 13 13 14 13 13 13 16 16 15 16 16 12 12 12 12 13 12 11 12 9 8 6 8 10 12 13 12
19 21 20 20 15 14 12 13 13 13 12 15 17 18 17 16 15 14 15 12 14 14 13 10 9 9 7 4 6 5 8 10
18 19 20 20 21 13 11 9 10 11 14 14 16 19 18 18 18 14 14 13 12 14 14 16 10 8 14 7 4 7 2 3
17 16 19 19 20 16 19 17 15 16 13 13 14 18 19 19 18 17 16 12 15 13 13 13 13 12 6 12 13 6 5 6
18 18 16 19 19 21 16 19 15 11 11 15 17 16 19 20 19 19 18 14 15 16 14 16 13 12 12 6 12 12 12 12
22 23 16 15 19 21 22 22 19 13 14 14 13 13 13 19 21 18 17 17 17 16 16 17 15 14 12 12 11 7 11 11
23 26 25 24 17 19 22 21 18 19 15 12 12 11 12 16 20 19 16 17 16 14 15 16 16 14 15 12 12 13 11 10
25 27 27 27 25 14 15 18 12 12 14 11 10 11 12 13 14 15 16 16 15 14 12 12 13 13 17 14 12 12 11 12
Wind_Direction
169 174 164 157 156 153 148 148 150 150 147 146 143 142 146 145 141 140 141 143 148 152 153 155 163 160 158 148 122 121 193 191
174 177 175 171 168 157 154 152 153 154 153 150 148 149 152 151 149 151 153 155 157 159 164 167 171 168 166 152 140 185 213 217
181 182 181 177 174 168 156 158 156 154 157 153 151 167 169 164 160 157 158 161 164 168 173 175 174 178 184 185 214 227 241 238
188 187 185 182 178 173 172 170 175 175 175 172 174 173 177 178 167 166 167 171 176 177 182 175 192 203 197 206 227 243 247 257
194 191 190 187 185 180 179 177 175 180 181 178 180 174 177 181 174 180 184 184 189 191 187 202 204 211 213 225 228 238 252 268
189 196 197 193 186 190 185 187 185 183 189 185 179 178 182 179 187 186 197 192 197 199 200 205 209 216 227 235 243 256 254 267
198 192 194 196 196 193 195 199 195 193 189 193 189 189 185 183 190 196 197 203 203 204 207 208 213 219 227 241 249 255 263 271
196 200 197 193 200 207 206 200 198 201 198 197 200 193 190 190 190 201 201 202 208 212 212 216 221 224 230 237 248 255 258 262
197 202 201 202 199 204 215 212 207 205 205 203 207 204 198 194 195 199 201 199 208 213 219 226 235 232 242 242 246 247 251 256
195 194 202 204 210 209 211 214 213 214 208 204 209 210 207 204 206 208 201 202 206 212 217 225 235 239 247 250 252 254 256 257
208 199 196 200 205 208 214 217 215 215 215 213 209 206 206 212 214 214 205 208 209 213 218 226 233 240 249 255 257 259 261 262
204 205 208 199 195 199 206 218 219 216 216 217 215 210 205 207 214 217 210 214 216 215 222 218 234 244 255 261 264 262 260 259
207 200 202 198 204 200 200 210 216 218 221 218 217 217 212 210 214 211 211 216 219 216 217 223 226 225 251 257 260 256 252 250
218 210 203 201 203 207 208 206 214 212 217 222 217 215 214 214 213 212 212 215 218 216 214 216 230 206 225 239 277 255 237 240
250 225 214 210 210 204 208 212 222 210 212 215 216 217 214 215 214 214 212 214 216 214 213 213 220 205 220 228 216 242 294 201
333 286 228 217 210 207 206 209 206 215 213 213 213 215 219 214 219 218 215 212 219 214 211 213 217 222 213 228 245 268 260 281
348 340 296 228 211 213 210 216 224 218 213 215 212 209 211 215 218 217 220 216 220 219 212 211 213 222 215 200 228 241 244 253
359 1 354 295 221 211 215 220 223 220 215 209 209 212 206 213 213 220 220 223 221 216 215 213 215 217 225 221 219 211 227 227
358 5 8 352 243 220 220 223 226 231 225 224 222 221 220 217 212 210 219 224 224 224 220 219 214 219 218 225 224 231 234 228
1 2 8 8 4 259 226 228 227 229 233 228 229 227 225 224 224 230 227 223 223 221 223 228 225 223 225 226 236 235 237 234